Home   Weather   Faro   Past weeks

Flag for Portugal Past Weather in Faro, Portugal — Yesterday and Last 2 Weeks

Now
55 °F

Clear.


Feels Like: 53 °F
Forecast: N/A
Wind: 10 mph from Northwest

Location: Faro / Aeroporto

Current Time: Jan 22, 2017 at 6:48:14 pm

Latest Report: Jan 22, 2017 at 6:00 pm


Visibility: 10 mi

Pressure: 30.07 "Hg

Humidity: 55%

Dew Point: 39 °F

Location of FaroLocation

Past Weather in Faro — Graph

°F

Faro Temperature Yesterday

Maximum temperature yesterday: 61 °F (at 4:00 pm)
Minimum temperature yesterday: 43 °F (at 12:00 am)
Average temperature yesterday: 50 °F

High & Low Weather Summary for the Past Weeks

 TemperatureHumidityPressure
High64 °F (Jan 10, 1:00 pm)94% (Jan 11, 10:30 pm)30.42 "Hg (Jan 11, 10:30 pm)
Low37 °F (Jan 19, 6:30 am)19% (Jan 18, 3:00 pm)29.98 "Hg (Jan 20, 2:00 pm)
Average52 °F61%30.20 "Hg
* Reported Jan 7 5:00 pm — Jan 22 5:30 pm, Faro, Weather by CustomWeather, © 2017

Note: Actual official high and low records may vary slightly from our data, if they occured in-between our weather recording intervals... More about our weather records

Advertising

Faro Weather History for the Previous 24 Hours

Scroll right to see more
 ConditionsComfort  
Time TempWeatherWind HumidityBarometerVisibility
5:30 pm
Sun, Jan 22
57 °FSunny.14 mph51%30.07 "Hg10 mi
5:00 pm57 °FSunny.14 mph51%30.07 "Hg10 mi
4:30 pm59 °FSunny.13 mph45%30.07 "Hg10 mi
4:00 pm61 °FPassing clouds.13 mph42%30.07 "HgN/A
3:30 pm61 °FSunny.13 mph42%30.07 "Hg10 mi
3:00 pm61 °FPassing clouds.12 mph42%30.07 "HgN/A
2:30 pm59 °FPassing clouds.13 mph42%30.07 "HgN/A
2:00 pm59 °FPassing clouds.14 mph39%30.09 "HgN/A
1:30 pm61 °FPassing clouds.14 mph36%30.09 "HgN/A
1:00 pm61 °FPassing clouds.15 mph36%30.09 "HgN/A
12:30 pm59 °FPassing clouds.10 mph55%30.12 "HgN/A
12:00 pm59 °FPassing clouds.9 mph39%30.12 "HgN/A
11:30 am59 °FPassing clouds.12 mph45%30.15 "HgN/A
11:00 am57 °FPassing clouds.12 mph51%30.15 "HgN/A
10:30 am54 °FSunny.8 mph72%30.15 "Hg10 mi
10:00 am54 °FSunny.6 mph72%30.15 "Hg10 mi
9:30 am52 °FSunny.5 mph77%30.15 "Hg10 mi
9:00 am48 °FSunny.5 mph82%30.12 "Hg10 mi
8:30 am43 °FSunny.5 mph87%30.12 "Hg10 mi
8:00 am45 °FSunny.No wind87%30.12 "Hg10 mi
7:30 am46 °FClear.2 mph82%30.12 "Hg10 mi
7:00 am46 °FClear.6 mph82%30.12 "Hg10 mi
6:30 am46 °FPassing clouds.5 mph82%30.09 "HgN/A
6:00 am46 °FClear.2 mph76%30.09 "Hg10 mi
5:30 am46 °FClear.3 mph76%30.09 "Hg10 mi
5:00 am46 °FClear.7 mph66%30.09 "Hg10 mi
4:30 am45 °FClear.6 mph76%30.09 "Hg10 mi
4:00 am45 °FPassing clouds.3 mph76%30.09 "HgN/A
3:30 am48 °FClear.7 mph66%30.09 "Hg10 mi
3:00 am48 °FClear.8 mph66%30.09 "Hg10 mi
2:30 am46 °FClear.10 mph71%30.09 "Hg10 mi
2:00 am46 °FClear.10 mph71%30.09 "Hg10 mi
1:30 am48 °FClear.2 mph66%30.12 "Hg10 mi
1:00 am48 °FClear.9 mph66%30.12 "Hg10 mi
12:30 am46 °FPassing clouds.3 mph71%30.12 "HgN/A
12:00 am45 °FClear.9 mph76%30.12 "Hg10 mi
11:30 pm
Sat, Jan 21
46 °FClear.8 mph71%30.12 "Hg10 mi
11:00 pm46 °FClear.3 mph71%30.12 "Hg10 mi
10:30 pm45 °FPassing clouds.3 mph76%30.12 "HgN/A
10:00 pm45 °FClear.5 mph76%30.12 "Hg10 mi
9:30 pm48 °FClear.5 mph71%30.12 "Hg10 mi
9:00 pm48 °FClear.8 mph71%30.12 "Hg10 mi
8:30 pm48 °FClear.5 mph71%30.09 "Hg10 mi
8:00 pm50 °FPassing clouds.5 mph67%30.09 "HgN/A
7:30 pm52 °FPassing clouds.7 mph62%30.09 "HgN/A
7:00 pm52 °FPassing clouds.5 mph62%30.09 "HgN/A
6:30 pm54 °FPassing clouds.6 mph58%30.09 "HgN/A
6:00 pm55 °FPassing clouds.8 mph51%30.07 "HgN/A
Weather by CustomWeather, © 2017

See weather overviewHow to use our weather pages